Regional Weather Roundup
Issued by NWS

Home | Current Version | Previous Version | Graphics & Text | Print | Product List | Glossary On
Versions: 1 2 3 4 5 6 7 8 9 10 11 12 13 14 15 16 17 18 19 20 21 22 23 24 25 26 27 28 29 30 31 32 33 34 35 36 37 38 39 40 41 42 43 44 45 46 47 48 49 50
426
ASUS43 KBIS 240002
RWRND

NORTH DAKOTA REGIONAL WEATHER ROUNDUP
NATIONAL WEATHER SERVICE BISMARCK ND
700 PM CDT MON MAY 23 2016

NOTE: "FAIR" INDICATES FEW OR NO CLOUDS BELOW 12,000 FEET WITH NO
SIGNIFICANT WEATHER AND/OR OBSTRUCTIONS TO VISIBILITY.


NDZ001>003-009>011-017-240100-
NORTHWEST NORTH DAKOTA

CITY           SKY/WX    TMP DP  RH WIND       PRES   REMARKS
WILLISTON      SUNNY     68  36  30 W16G31    29.67R
6HR MIN TEMP:  67; 6HR MAX TEMP:  74;

MINOT          PTSUNNY   78  31  17 SW15G22   29.63F
MINOT AFB      LGT RAIN  69  38  32 SW8G29    29.63R
$$

NDZ018>021-031>035-040>046-240100-
SOUTHWEST NORTH DAKOTA

CITY           SKY/WX    TMP DP  RH WIND       PRES   REMARKS
BISMARCK       SUNNY     74  36  25 NW6       29.67S
6HR MIN TEMP:  73; 6HR MAX TEMP:  81;

DICKINSON      PTSUNNY   66  38  35 W3        29.70F
GARRISON         N/A     72  32  23 W13       29.66S
6HR MIN TEMP:  72; 6HR MAX TEMP:  78;

HETTINGER ARPT CLOUDY    64  40  41 NW9       29.72R
$$

NDZ004>008-012>016-024-026-027-054-240100-
NORTHEAST NORTH DAKOTA

CITY           SKY/WX    TMP DP  RH WIND       PRES   REMARKS
GRAND FORKS    MOSUNNY   80  44  27 SW6       29.64F
GRND FRKS AFB  SUNNY     79  43  28 SW7       29.65F
DEVILS LAKE    PTSUNNY   77  39  25 W7        29.67
$$

NDZ022-023-025-028>030-036>039-047>053-240100-
SOUTHEAST NORTH DAKOTA

CITY           SKY/WX    TMP DP  RH WIND       PRES   REMARKS
FARGO          CLOUDY    74  48  39 NW15      29.67R
6HR MIN TEMP:  72; 6HR MAX TEMP:  84; 6HR PCP: TRACE;

JAMESTOWN      MOSUNNY   76  48  37 S8        29.66F
$$





USA.gov is the U.S. government's official web portal to all federal, state and local government web resources and services.